This is the latest recevied weather packets stored in our database for station/object KD4MBW. If no packets are shown the sender has not sent any weather packets the latest 10 day(s).
| Time | Temp. | Humidity | Pressure | Rain* | Wind** | Luminosity | Snow |
|---|---|---|---|---|---|---|---|
| 1787956568 | 26.67° C | 95% | 1015.7 hPa | 0 mm | - | 121 W/m² | - |
| 1787956263 | 26.67° C | 95% | 1016.1 hPa | 0 mm | - | 116 W/m² | - |
| 1787955958 | 26.67° C | 96% | 1016.3 hPa | 0 mm | - | 113 W/m² | - |
| 1787955653 | 26.67° C | 96% | 1015.9 hPa | 0 mm | - | 116 W/m² | - |
| 1787955349 | 26.67° C | 97% | 1016 hPa | 0 mm | - | 105 W/m² | - |
| 1787955048 | 26.11° C | 97% | 1015.8 hPa | 0 mm | - | 91 W/m² | - |
| 1787954743 | 26.67° C | 97% | 1015.9 hPa | 0 mm | - | 83 W/m² | - |
| 1787954439 | 26.67° C | 98% | 1016 hPa | 0 mm | - | 84 W/m² | - |
| 1787954133 | 26.11° C | 97% | 1016.3 hPa | 0 mm | - | 90 W/m² | - |
| 1787953832 | 26.11° C | 98% | 1016.2 hPa | 0 mm | - | 105 W/m² | - |
| 1787953527 | 26.11° C | 98% | 1016.2 hPa | 0 mm | - | 115 W/m² | - |
| 1787953227 | 26.11° C | 98% | 1016.1 hPa | 0 mm | - | 114 W/m² | - |
| 1787952924 | 26.11° C | 97% | 1016.3 hPa | 0 mm | - | 106 W/m² | - |
| 1787952619 | 26.67° C | 96% | 1016.1 hPa | 0 mm | - | 100 W/m² | - |
| 1787952318 | 26.67° C | 97% | 1016.3 hPa | 0 mm | - | 100 W/m² | - |
| 1787952015 | 26.67° C | 98% | 1016.1 hPa | 0 mm | - | 99 W/m² | - |
| 1787951709 | 26.11° C | 97% | 1016.1 hPa | 0 mm | - | 96 W/m² | - |
| 1787951405 | 26.11° C | 97% | 1016.2 hPa | 0 mm | - | 90 W/m² | - |
| 1787951101 | 26.11° C | 97% | 1016.1 hPa | 0 mm | - | 83 W/m² | - |
| 1787950796 | 26.11° C | 97% | 1016.1 hPa | 0 mm | - | 79 W/m² | - |
| 1787950491 | 26.11° C | 96% | 1015.9 hPa | 0 mm | - | 77 W/m² | - |
| 1787950188 | 26.67° C | 96% | 1015.9 hPa | 0 mm | - | 76 W/m² | - |
| 1787949883 | 26.67° C | 95% | 1015.7 hPa | 0 mm | - | 74 W/m² | - |
| 1787949578 | 26.67° C | 94% | 1015.9 hPa | 0 mm | - | 71 W/m² | - |
| 1787949273 | 26.67° C | 93% | 1015.7 hPa | 0 mm | - | 68 W/m² | - |
* Rain latest hour (hover to see other rain measurements)
** Current wind speed in m/s (hover to see current wind gust speed)